Location: Leeds
(37.2390°N, 113.3580°W)
Time: 20:21:07
(UTC-06:00)

ISS - All Passes

Search period start: 02 September 2014 00:00
Search period end: 12 September 2014 00:00
Orbit: 413 x 419 km, 51.6° (Epoch: 02 September)

Date Brightness Start Highest point End Pass type
(mag) Time Alt. Az. Time Alt. Az. Time Alt. Az.
02 Sep - 09:18:36 10° S 09:21:14 22° SE 09:23:53 10° ENE daylight
02 Sep - 10:54:46 10° W 10:57:49 34° NNW 11:00:54 10° NNE daylight
02 Sep - 15:49:02 10° NNW 15:51:22 18° NNE 15:53:43 10° ENE daylight
02 Sep - 17:25:05 10° NW 17:28:22 63° SW 17:31:39 10° SE daylight
03 Sep - 08:31:30 10° SSE 08:32:52 12° SE 08:34:14 10° ESE daylight
03 Sep - 10:05:56 10° WSW 10:09:12 59° NW 10:12:30 10° NE daylight
03 Sep - 11:45:07 10° NW 11:46:31 12° NNW 11:47:55 10° N daylight
03 Sep - 15:00:58 10° N 15:02:35 13° NNE 15:04:12 10° NE daylight
03 Sep - 16:36:31 10° NW 16:39:50 68° NE 16:43:08 10° ESE daylight
03 Sep - 18:15:29 10° WSW 18:16:07 10° SW 18:16:46 10° SW daylight
04 Sep - 09:17:20 10° SW 09:20:38 73° SE 09:23:57 10° NE daylight
04 Sep - 10:55:29 10° WNW 10:57:41 16° NNW 10:59:53 10° NNE daylight
04 Sep - 15:48:04 10° NW 15:51:12 38° NE 15:54:20 10° ESE daylight
04 Sep - 17:25:16 10° W 17:27:44 19° SW 17:30:11 10° S daylight
05 Sep - 08:29:01 10° SSW 08:32:06 37° SE 08:35:13 10° ENE daylight
05 Sep - 10:06:10 10° W 10:08:54 23° NNW 10:11:39 10° NNE daylight
05 Sep - 14:59:42 10° NNW 15:02:29 24° NNE 15:05:15 10° E daylight
05 Sep - 16:36:11 10° WNW 16:39:16 35° SW 16:42:20 10° SSE daylight
06 Sep - 07:41:07 10° S 07:43:37 20° SE 07:46:08 10° E daylight
06 Sep - 09:17:04 10° WSW 09:20:10 36° NW 09:23:17 10° NE daylight
06 Sep - 14:11:26 10° NNW 14:13:41 17° NNE 14:15:55 10° ENE daylight
06 Sep - 15:47:24 10° NW 15:50:43 70° SW 15:54:01 10° SE daylight
07 Sep - 06:54:17 10° SE 06:55:10 11° SE 06:56:04 10° ESE daylight
07 Sep - 08:28:11 10° WSW 08:31:29 65° NW 08:34:47 10° NE daylight
07 Sep - 10:07:10 10° NW 10:08:44 13° NNW 10:10:18 10° N daylight
07 Sep - 13:23:20 10° N 13:24:48 12° NNE 13:26:15 10° NE daylight
07 Sep - 14:58:47 10° NW 15:02:05 61° NE 15:05:22 10° ESE daylight
07 Sep - 16:37:11 10° WSW 16:38:24 12° SW 16:39:38 10° SSW daylight
08 Sep - 07:39:33 10° SW 07:42:50 65° SE 07:46:08 10° NE daylight
08 Sep - 09:17:32 10° WNW 09:19:50 17° NNW 09:22:09 10° NNE daylight
08 Sep - 14:10:16 10° NW 14:13:21 34° NE 14:16:26 10° ESE daylight
08 Sep - 15:47:19 10° W 15:49:55 21° SW 15:52:31 10° S daylight
09 Sep - 06:51:13 10° SSW 06:54:14 33° SE 06:57:16 10° ENE daylight
09 Sep - 08:28:10 10° W 08:30:59 25° NNW 08:33:49 10° NNE daylight
09 Sep - 13:21:51 10° NNW 13:24:33 22° NNE 13:27:14 10° E daylight
09 Sep - 14:58:13 10° WNW 15:01:22 40° SW 15:04:29 10° SSE daylight
10 Sep - 06:03:20 10° S 06:05:41 18° SE 06:08:02 10° E visible
10 Sep - 07:39:01 10° WSW 07:42:10 40° NW 07:45:21 10° NE daylight
10 Sep - 09:19:12 10° NNW 09:19:38 10° NNW 09:20:03 10° N daylight
10 Sep - 12:33:31 10° NNW 12:35:39 16° NNE 12:37:46 10° ENE daylight
10 Sep - 14:09:24 10° NW 14:12:43 79° SW 14:16:02 10° SE daylight
11 Sep - 06:50:06 10° SW 06:53:25 73° NW 06:56:44 10° NE daylight
11 Sep - 08:28:54 10° NW 08:30:37 13° NNW 08:32:21 10° N daylight
11 Sep - 11:45:23 10° N 11:46:40 12° NNE 11:47:56 10° NE daylight
11 Sep - 13:20:43 10° NW 13:24:00 54° NE 13:27:15 10° ESE daylight
11 Sep - 14:58:44 10° W 15:00:21 13° SW 15:01:58 10° SSW daylight
